[[{"header":{"parameterUnit":"m.s-1","parameterCategory":1,"la1":30.2991,"la2":30.254,"lo1":-89.0895,"lo2":-89.0444,"dy":0.0017,"dx":0.0017,"nx":28,"ny":28,"refTime":"2024-03-10T09:00:00:Z","depth":0,"parameterNumber":2,"parameterNumberName":"U-component_of_WINDS"},"data":[0,0,0,0,0,0,0,0,0,0,0,0,0,0,0,0,0,0,0,0,0,0,0,0,0,0,0,0,0,0,0,0,0,0,0,0,0,0,0,0,0,0,0,0,0,0,0,0,0,0,0,0,0,0,0,0,0,0,-0.8479,-0.848,0,-0.8562,-0.8563,-0.8564,-0.8574,-0.8573,-0.8572,-0.8571,-0.866,-0.8663,-0.8666,0,0,0,0,0,0,0,0,0,0,0,0,0,-0.8333,-0.8335,-0.8479,-0.848,-0.8481,-0.8562,-0.8563,-0.8564,-0.8574,-0.8573,-0.8572,-0.8571,-0.8659,-0.8663,-0.8666,0,0,0,0,0,0,0,0,0,0,0,0,0,-0.8404,-0.8336,-0.8478,-0.8495,-0.8498,-0.8561,-0.8563,-0.8564,-0.8574,-0.8573,-0.8572,-0.857,-0.8658,-0.8662,-0.8667,-0.872,0,0,-0.8681,-0.8683,0,0,0,0,0,0,0,0,-0.84,-0.8409,-0.8492,-0.8494,-0.8497,-0.8556,-0.8544,-0.8617,-0.8574,-0.8545,-0.8571,-0.857,-0.8627,-0.8634,-0.8652,-0.8725,-0.8728,-0.8682,-0.8684,-0.8686,-0.8688,0,0,0,0,0,0,0,-0.8395,-0.8406,-0.8512,-0.8493,-0.8496,-0.85,-0.8509,-0.8558,-0.8592,-0.8548,-0.8549,-0.8558,-0.8628,-0.8648,-0.8654,-0.873,-0.8681,-0.8686,-0.8688,-0.869,-0.8851,-0.8853,0,0,0,0,0,0,-0.8386,-0.8402,-0.8509,-0.8514,-0.8444,-0.8504,-0.8513,-0.8538,-0.8591,-0.8598,-0.8559,-0.8558,-0.864,-0.8649,-0.8657,-0.8724,-0.8686,-0.8691,-0.8693,-0.885,-0.8852,-0.8853,0,0,0,0,0,0,-0.8383,-0.8396,-0.8506,-0.8458,-0.8472,-0.8507,-0.8535,-0.8541,-0.856,-0.86,-0.8606,-0.8573,-0.864,-0.8651,-0.8705,-0.8728,-0.8693,-0.8697,-0.8848,-0.885,-0.8853,-0.8858,0,0,0,0,0,0,-0.8379,-0.8395,-0.8414,-0.8458,-0.8475,-0.855,-0.8537,-0.8543,-0.8568,-0.8568,-0.8614,-0.8621,-0.8639,-0.8698,-0.8709,-0.8733,-0.8701,-0.8846,-0.8849,-0.8852,-0.8856,-0.886,-0.8864,0,0,0,0,0,-0.8374,-0.8413,-0.8415,-0.8428,-0.85,-0.8552,-0.8561,-0.858,-0.857,-0.8591,-0.8616,-0.862,-0.8723,-0.8703,-0.8716,-0.8742,-0.8845,-0.8848,-0.8852,-0.8854,-0.8859,-0.8864,0,0,0,0,0,0,-0.8372,-0.8419,-0.8422,-0.8477,-0.851,-0.8553,-0.858,-0.8585,-0.8623,-0.8621,-0.8645,-0.8655,-0.8708,-0.8731,-0.8707,-0.8797,-0.8783,-0.8789,-0.8781,-0.8786,-0.879,-0.8783,-0.8705,0,0,0,0,0,-0.8378,-0.8414,-0.8454,-0.8499,-0.8515,-0.8545,-0.8568,-0.858,-0.8616,-0.863,-0.8659,-0.8695,-0.8736,-0.8762,-0.8801,-0.8859,-0.887,-0.8884,-0.8887,-0.889,-0.8896,-0.8929,-0.8936,-0.8864,-0.8864,-0.8864,0,0,-0.8391,-0.8421,-0.8443,-0.8499,-0.8526,-0.8565,-0.8556,-0.8598,-0.8627,-0.8637,-0.8689,-0.8712,-0.8753,-0.8809,-0.8836,-0.883,-0.8918,-0.8895,-0.8897,-0.89,-0.8933,-0.894,-0.8946,-0.8866,-0.8866,-0.8866,0,0,-0.8434,-0.846,-0.85,-0.8527,-0.8568,-0.8588,-0.8597,-0.864,-0.8655,-0.8708,-0.8716,-0.8752,-0.8821,-0.885,-0.8874,-0.8929,-0.8934,-0.8941,-0.8962,-0.8994,-0.8999,-0.9005,-0.9025,-0.9032,-0.8946,-0.8946,-0.8946,0,-0.8445,-0.8502,-0.8521,-0.8562,-0.8587,-0.8596,-0.8638,-0.8664,-0.8716,-0.8734,-0.8726,-0.8813,-0.8842,-0.8905,-0.8918,-0.8937,-0.895,-0.8936,-0.8997,-0.9002,-0.9007,-0.9027,-0.9035,-0.8947,-0.8947,-0.8947,-0.8947,0,-0.8515,-0.8554,-0.8582,-0.8631,-0.8659,-0.87,-0.8726,-0.8753,-0.8762,-0.8783,-0.8837,-0.8872,-0.8919,-0.8935,-0.8945,-0.9,-0.8995,-0.8992,-0.8978,-0.9015,-0.9033,-0.9041,-0.8948,-0.8948,-0.8947,-0.8947,0,0,-0.8559,-0.8618,-0.8628,-0.865,-0.8696,-0.8728,-0.877,-0.8815,-0.8837,-0.8873,-0.891,-0.8968,-0.8966,-0.8993,-0.9006,-0.9034,-0.9077,-0.9028,-0.9029,-0.9037,-0.9141,-0.9143,-0.9152,-0.908,-0.9081,-0.9083,-0.9138,0,-0.8608,-0.8682,-0.87,-0.8764,-0.8802,-0.8811,-0.8848,-0.8881,-0.8901,-0.8937,-0.896,-0.9002,-0.8995,-0.9011,-0.9039,-0.9065,-0.9098,-0.9062,-0.9116,-0.9117,-0.9105,-0.9161,-0.9164,-0.9214,-0.9145,-0.9146,-0.9147,0,-0.8676,-0.8712,-0.8779,-0.882,-0.8836,-0.8869,-0.8912,-0.8946,-0.8984,-0.8997,-0.9027,-0.9038,-0.9083,-0.9067,-0.9131,-0.9106,-0.9129,-0.9145,-0.9148,-0.9154,-0.9135,-0.917,-0.9231,-0.9239,-0.9159,-0.9158,-0.9157,0,-0.8702,-0.8768,-0.8817,-0.8836,-0.8885,-0.8908,-0.8929,-0.8966,-0.8992,-0.903,-0.9047,-0.909,-0.9114,-0.9148,-0.917,-0.9156,-0.9233,-0.9218,-0.9246,-0.9245,-0.9262,-0.9261,-0.9328,-0.9276,-0.9276,-0.9275,-0.9275,0,-0.8756,-0.8797,-0.8829,-0.886,-0.8906,-0.8927,-0.8973,-0.8995,-0.9027,-0.9063,-0.9074,-0.9108,-0.9135,-0.9173,-0.9191,-0.9242,-0.9252,-0.9265,-0.927,-0.9264,-0.9263,-0.9281,-0.9278,-0.9278,-0.9277,-0.9277,-0.9276,0,-0.8794,-0.8817,-0.8871,-0.8913,-0.8925,-0.8957,-0.8994,-0.9024,-0.9045,-0.909,-0.9101,-0.9134,-0.9179,-0.9205,-0.9262,-0.9274,-0.9331,-0.9333,-0.9317,-0.932,-0.9346,-0.9344,-0.9428,-0.944,-0.9379,-0.9379,-0.938,0,-0.8827,-0.8858,-0.8903,-0.8927,-0.8949,-0.8988,-0.9014,-0.9036,-0.9063,-0.9109,-0.9134,-0.9179,-0.9217,-0.9288,-0.9318,-0.9362,-0.9366,-0.9392,-0.9373,-0.9367,-0.9367,-0.9365,-0.9369,-0.9396,-0.9396,-0.9397,-0.9397,0,-0.8883,-0.8893,-0.893,-0.8971,-0.9002,-0.9035,-0.9069,-0.9088,-0.9116,-0.9146,-0.9192,-0.9221,-0.9278,-0.9323,-0.937,-0.9393,-0.9401,-0.9403,-0.9412,-0.9408,-0.9397,-0.9404,-0.9327,-0.9401,-0.9401,-0.9401,-0.94,-0.94,-0.892,-0.8949,-0.8985,-0.9026,-0.9053,-0.9084,-0.9115,-0.9139,-0.9177,-0.9225,-0.9235,-0.9284,-0.9322,-0.9384,-0.9409,-0.9448,-0.9443,-0.9456,-0.9459,-0.9462,-0.9464,-0.939,-0.9456,-0.9456,-0.9456,-0.9456,-0.9456,0,-0.8978,-0.9001,-0.9038,-0.9084,-0.9117,-0.9119,-0.9157,-0.9184,-0.9226,-0.926,-0.9296,-0.9349,-0.9393,-0.9426,-0.9471,-0.9496,-0.95,-0.9507,-0.9506,-0.9512,-0.9465,-0.9453,-0.9503,-0.9503,-0.9503,-0.9503,-0.9503,-0.9503,-0.9011,-0.906,-0.9074,-0.9137,-0.9161,-0.9207,-0.9229,-0.9258,-0.9285,-0.9343,-0.9379,-0.94,-0.9434,-0.9482,-0.9523,-0.9532,-0.9548,-0.9555,-0.9564,-0.952,-0.9515,-0.951,-0.9499,-0.9558,-0.9558,-0.9608,-0.9608,-0.9609]},{"header":{"parameterUnit":"m.s-1","parameterCategory":1,"la1":30.2991,"la2":30.254,"lo1":-89.0895,"lo2":-89.0444,"dy":0.0017,"dx":0.0017,"nx":28,"ny":28,"refTime":"2024-03-10T09:00:00:Z","depth":0,"parameterNumber":3,"parameterNumberName":"V-component_of_WINDS"},"data":[0,0,0,0,0,0,0,0,0,0,0,0,0,0,0,0,0,0,0,0,0,0,0,0,0,0,0,0,0,0,0,0,0,0,0,0,0,0,0,0,0,0,0,0,0,0,0,0,0,0,0,0,0,0,0,0,0,0,1.8832,1.8833,0,1.8863,1.8863,1.8864,1.8833,1.8831,1.883,1.8829,1.886,1.8862,1.8864,0,0,0,0,0,0,0,0,0,0,0,0,0,1.8744,1.8746,1.8832,1.8833,1.8833,1.8863,1.8864,1.8864,1.8833,1.8831,1.883,1.8828,1.8859,1.8861,1.8864,0,0,0,0,0,0,0,0,0,0,0,0,0,1.878,1.8747,1.8832,1.8821,1.8821,1.8863,1.8864,1.8864,1.8833,1.8831,1.8829,1.8828,1.8858,1.8861,1.8864,1.8919,0,0,1.8873,1.8874,0,0,0,0,0,0,0,0,1.8778,1.8783,1.8822,1.8822,1.8821,1.8842,1.8844,1.8882,1.8834,1.8828,1.8829,1.8827,1.8855,1.8858,1.8868,1.892,1.8921,1.8873,1.8875,1.8876,1.8877,0,0,0,0,0,0,0,1.8775,1.8781,1.8844,1.8823,1.8822,1.8814,1.8817,1.8851,1.8852,1.8829,1.8826,1.8831,1.8855,1.8865,1.8869,1.8922,1.8873,1.8876,1.8878,1.8879,1.9017,1.9019,0,0,0,0,0,0,1.8774,1.878,1.8844,1.8845,1.8795,1.8817,1.882,1.8837,1.8851,1.8852,1.8832,1.8829,1.8861,1.8865,1.887,1.8932,1.8876,1.8879,1.8881,1.9015,1.9018,1.902,0,0,0,0,0,0,1.8772,1.878,1.8842,1.8812,1.8819,1.882,1.884,1.8839,1.885,1.8854,1.8854,1.8843,1.886,1.8865,1.8906,1.8933,1.888,1.8883,1.9013,1.9016,1.9019,1.906,0,0,0,0,0,0,1.877,1.878,1.8801,1.8813,1.8821,1.8879,1.8842,1.8841,1.8855,1.8851,1.8864,1.8864,1.8859,1.8902,1.8909,1.8936,1.8885,1.9011,1.9014,1.9018,1.9056,1.9064,1.907,0,0,0,0,0,1.8767,1.8812,1.8803,1.881,1.8848,1.8881,1.8885,1.8879,1.8857,1.8878,1.888,1.8864,1.8929,1.8906,1.8914,1.8943,1.9009,1.9013,1.9018,1.9053,1.9062,1.907,0,0,0,0,0,0,1.8804,1.8813,1.8803,1.8853,1.8866,1.8876,1.8902,1.8889,1.8909,1.8904,1.8894,1.8898,1.894,1.8946,1.892,1.8995,1.8965,1.8972,1.899,1.8999,1.9006,1.9003,1.8888,0,0,0,0,0,1.8818,1.8845,1.8851,1.8895,1.8902,1.8901,1.8915,1.8908,1.8922,1.8927,1.8932,1.8945,1.8968,1.8984,1.9006,1.9057,1.9058,1.908,1.9087,1.9093,1.9098,1.9123,1.9132,1.9034,1.9034,1.9034,0,0,1.8848,1.8856,1.8873,1.8902,1.8912,1.8938,1.8906,1.8936,1.8955,1.8931,1.897,1.8974,1.8988,1.9033,1.9054,1.9039,1.9125,1.9099,1.9103,1.9105,1.9128,1.9138,1.9146,1.9037,1.9036,1.9036,0,0,1.8914,1.8924,1.896,1.897,1.8984,1.8983,1.8992,1.9002,1.9004,1.9042,1.9024,1.9047,1.9088,1.9097,1.9108,1.9176,1.916,1.9183,1.922,1.9245,1.9252,1.9259,1.9281,1.929,1.9188,1.9188,1.9189,0,1.8949,1.8989,1.898,1.9011,1.9023,1.9003,1.9038,1.9048,1.9069,1.9078,1.9061,1.911,1.9118,1.9165,1.9181,1.9191,1.9199,1.9181,1.9252,1.9259,1.9265,1.9286,1.9294,1.9191,1.9191,1.919,1.919,0,1.9029,1.9057,1.9084,1.9104,1.9119,1.9153,1.9148,1.9165,1.9157,1.9157,1.9194,1.9203,1.9225,1.9236,1.9229,1.9281,1.9271,1.9254,1.9224,1.9277,1.9296,1.9304,1.9195,1.9194,1.9193,1.9192,0,0,1.9121,1.9134,1.9144,1.9152,1.9165,1.9186,1.9217,1.9239,1.9252,1.9267,1.9292,1.9326,1.9309,1.9321,1.9314,1.9336,1.9386,1.9315,1.9315,1.9326,1.9442,1.9453,1.9463,1.9377,1.9378,1.9379,1.944,0,1.9186,1.924,1.9233,1.9284,1.9308,1.9288,1.9315,1.9326,1.9326,1.9346,1.9347,1.937,1.9348,1.9354,1.9375,1.9376,1.9409,1.9372,1.9398,1.9399,1.9394,1.9474,1.9487,1.9543,1.9448,1.9449,1.945,0,1.927,1.9286,1.934,1.9347,1.9357,1.9382,1.9399,1.9419,1.943,1.9429,1.9441,1.943,1.946,1.943,1.947,1.9445,1.9455,1.9457,1.9459,1.946,1.9427,1.9475,1.9562,1.9569,1.9462,1.9461,1.946,0,1.9328,1.9364,1.94,1.9408,1.9418,1.9435,1.944,1.9449,1.9462,1.9477,1.9485,1.9504,1.9514,1.9528,1.9522,1.9501,1.9562,1.9533,1.9561,1.9561,1.9574,1.9573,1.9661,1.9583,1.9583,1.9583,1.9583,0,1.9401,1.9434,1.9426,1.9449,1.9485,1.9475,1.9511,1.9514,1.9521,1.9543,1.9527,1.9548,1.9539,1.9558,1.9553,1.9586,1.9591,1.959,1.9588,1.959,1.959,1.9596,1.9591,1.9585,1.9585,1.9584,1.9584,0,1.9472,1.9469,1.9506,1.9512,1.9515,1.9541,1.9545,1.9566,1.9564,1.9591,1.9597,1.9595,1.9617,1.9612,1.9637,1.9633,1.9674,1.9668,1.967,1.9668,1.9695,1.9692,1.9789,1.9801,1.9717,1.9718,1.9719,0,1.9518,1.9543,1.9551,1.9564,1.957,1.9592,1.9604,1.9595,1.9608,1.9621,1.964,1.966,1.9676,1.9711,1.9712,1.9729,1.9723,1.9755,1.9725,1.9726,1.9721,1.9719,1.972,1.9761,1.9762,1.9763,1.9764,0,1.96,1.9596,1.9614,1.9631,1.9646,1.9659,1.9671,1.9682,1.9674,1.969,1.9712,1.9724,1.9748,1.9767,1.9783,1.9788,1.9774,1.9773,1.978,1.9782,1.9782,1.978,1.9684,1.9771,1.977,1.9769,1.9769,1.9769,1.9659,1.9679,1.9687,1.9707,1.9714,1.9725,1.9743,1.9744,1.9762,1.978,1.9774,1.9798,1.9807,1.9827,1.9833,1.9851,1.9839,1.985,1.9852,1.9854,1.9857,1.978,1.9855,1.9854,1.9854,1.9854,1.9854,0,1.9737,1.9741,1.976,1.9775,1.9791,1.9776,1.9788,1.9802,1.9823,1.9832,1.9847,1.9871,1.989,1.9891,1.9908,1.9922,1.9916,1.9927,1.9925,1.9926,1.9868,1.9859,1.9931,1.9931,1.9931,1.9931,1.9931,1.9931,1.978,1.9812,1.9809,1.9845,1.9848,1.9872,1.9879,1.9888,1.9895,1.9922,1.9937,1.9938,1.9943,1.996,1.9976,1.9976,1.9982,1.9995,1.9992,1.9938,1.993,1.9923,1.9914,1.9997,1.9997,2.0048,2.0049,2.0049]}]]